CST,Max TemperatureF,Mean TemperatureF,Min TemperatureF,Max Dew PointF,MeanDew PointF,Min DewpointF,Max Humidity, Mean Humidity, Min Humidity, Max Sea Level PressureIn, Mean Sea Level PressureIn, Min Sea Level PressureIn, Max VisibilityMiles, Mean VisibilityMiles, Min VisibilityMiles, Max Wind SpeedMPH, Mean Wind SpeedMPH, Max Gust SpeedMPH,PrecipitationIn, CloudCover, Events, WindDirDegrees
2012-12-1,,,,,,,,,,,,,,,,,,,,,,
2012-12-2,,,,,,,,,,,,,,,,,,,,,,
2012-12-3,,,,,,,,,,,,,,,,,,,,,,
2012-12-4,,,,,,,,,,,,,,,,,,,,,,
2012-12-5,61,58,54,58,54,51,93,85,76,30.26,30.18,30.13,10,8,3,9,4,,0.53,8,Rain,39
2012-12-6,62,58,54,55,54,52,93,86,77,30.05,29.97,29.93,10,8,2,5,2,,0.00,6,,144
2012-12-7,68,61,54,60,57,53,95,88,74,29.96,29.90,29.85,10,7,0,9,3,,0.00,6,Fog,158
2012-12-8,74,66,59,64,62,58,94,86,66,29.94,29.89,29.85,10,7,0,8,4,,0.00,5,Fog-Thunderstorm,157
2012-12-9,77,68,59,64,62,55,92,80,59,29.92,29.85,29.79,10,10,7,12,6,22,0.04,7,Rain-Thunderstorm,173
2012-12-10,58,46,32,54,33,25,92,68,44,30.11,30.00,29.85,10,9,2,17,8,26,0.52,3,Rain-Thunderstorm,319
2012-12-11,50,40,29,29,25,18,88,67,27,30.27,30.18,30.10,10,10,4,10,2,,0.00,0,,24
2012-12-12,55,40,25,32,25,18,94,65,24,30.39,30.31,30.26,10,10,7,8,1,,0.00,0,,86
2012-12-13,61,44,28,34,28,23,94,67,24,30.38,30.33,30.27,10,10,7,8,1,,0.00,0,,136
2012-12-14,61,48,34,50,35,28,89,59,33,30.28,30.16,29.99,10,10,10,10,4,16,0.00,4,Rain,125
2012-12-15,71,65,59,64,58,51,93,81,62,30.00,29.91,29.85,10,9,2,14,6,22,0.58,8,Rain,169
2012-12-16,66,63,60,64,61,57,94,90,81,29.86,29.80,29.72,10,7,0,7,3,9,0.10,8,Fog-Rain-Thunderstorm,183
2012-12-17,64,52,41,57,47,37,94,76,38,29.91,29.82,29.75,10,9,2,14,6,22,0.00,3,,241
2012-12-18,75,56,37,53,42,36,95,65,27,29.93,29.89,29.83,10,10,10,9,3,,0.00,0,,165
2012-12-19,75,64,54,65,58,51,91,77,62,29.91,29.80,29.66,10,10,10,14,7,23,0.00,4,,158
2012-12-20,72,54,37,65,27,12,85,46,23,30.37,30.10,29.66,10,10,5,29,13,48,0.04,2,Rain,291
2012-12-21,60,44,28,32,21,13,82,49,18,30.48,30.39,30.33,10,10,10,13,3,17,0.00,0,,286
2012-12-22,65,48,30,41,29,20,93,54,19,30.37,30.27,30.14,10,10,10,13,2,18,0.00,0,,179
2012-12-23,68,61,54,59,53,42,89,76,61,30.14,29.96,29.83,10,10,10,13,5,21,0.00,7,Rain,166
2012-12-24,67,54,41,58,44,34,90,68,41,29.99,29.90,29.86,10,10,10,8,3,,0.00,0,,320
2012-12-25,53,44,34,50,43,32,94,88,73,29.92,29.72,29.47,10,8,1,20,9,32,1.51,7,Rain-Snow-Thunderstorm,44
2012-12-26,41,36,30,32,28,26,91,80,58,30.21,30.13,29.94,10,10,5,14,8,22,0.01,5,Rain,300
2012-12-27,49,38,27,38,31,26,95,76,47,30.19,30.09,29.96,10,9,4,8,3,,0.02,3,Rain,106
2012-12-28,43,40,37,42,39,32,94,91,80,30.12,29.93,29.82,10,7,1,15,5,23,0.32,8,Rain,350
2012-12-29,45,36,27,32,25,20,90,69,38,30.46,30.33,30.13,10,10,10,13,6,21,0.00,1,,310
2012-12-30,48,36,25,29,25,21,92,57,35,30.53,30.42,30.32,10,10,10,8,3,,0.00,0,,120
2012-12-31,54,46,39,51,40,29,94,76,56,30.32,30.13,29.98,10,9,3,10,5,17,1.01,8,Rain,132